This is the latest recevied weather packets stored in our database for station/object DB0SMU-12. If no packets are shown the sender has not sent any weather packets the latest 1 day(s).
| Time | Temp. | Humidity | Pressure | Rain* | Wind** | Luminosity | Snow |
|---|---|---|---|---|---|---|---|
| 1777954701 | 9.44° C | 80% | 1011 hPa | 0.25 mm | 2.68 m/s, 217° | - | - |
| 1777954520 | 9.44° C | 80% | 1011 hPa | 0.25 mm | 2.24 m/s, 211° | - | - |
| 1777954339 | 9.44° C | 81% | 1011 hPa | 0.25 mm | 1.79 m/s, 194° | - | - |
| 1777954158 | 9.44° C | 80% | 1011 hPa | 0.25 mm | 1.34 m/s, 200° | - | - |
| 1777953978 | 9.44° C | 80% | 1011 hPa | 0.25 mm | 1.79 m/s, 224° | - | - |
| 1777953797 | 9.44° C | 81% | 1010.9 hPa | 0.25 mm | 2.24 m/s, 223° | - | - |
| 1777953623 | 9.44° C | 80% | 1010.9 hPa | 0 mm | 2.24 m/s, 222° | - | - |
| 1777953435 | 9.44° C | 80% | 1010.9 hPa | 0 mm | 1.79 m/s, 225° | - | - |
| 1777953254 | 9.44° C | 80% | 1010.9 hPa | 0 mm | 1.79 m/s, 223° | - | - |
| 1777953073 | 9.44° C | 80% | 1010.9 hPa | 0 mm | 2.24 m/s, 213° | - | - |
| 1777952892 | 9.44° C | 80% | 1011 hPa | 0 mm | 1.34 m/s, 215° | - | - |
| 1777952711 | 9.44° C | 80% | 1010.9 hPa | 0 mm | 2.24 m/s, 225° | - | - |
| 1777952530 | 9.44° C | 80% | 1010.9 hPa | 0 mm | 2.24 m/s, 225° | - | - |
| 1777952349 | 9.44° C | 80% | 1010.9 hPa | 0 mm | 1.79 m/s, 223° | - | - |
| 1777952168 | 9.44° C | 81% | 1010.9 hPa | 0 mm | 1.34 m/s, 225° | - | - |
| 1777951987 | 9.44° C | 80% | 1010.9 hPa | 0 mm | 1.34 m/s, 225° | - | - |
| 1777951806 | 9.44° C | 79% | 1010.9 hPa | 0 mm | 0.89 m/s, 227° | - | - |
| 1777951626 | 9.44° C | 80% | 1010.9 hPa | 0 mm | 1.34 m/s, 222° | - | - |
| 1777951445 | 9.44° C | 80% | 1011 hPa | 0 mm | 0.89 m/s, 207° | - | - |
| 1777951264 | 9.44° C | 80% | 1011.1 hPa | 0 mm | 1.34 m/s, 223° | - | - |
| 1777951083 | 9.44° C | 80% | 1011.1 hPa | 0 mm | 2.24 m/s, 220° | - | - |
| 1777950902 | 9.44° C | 80% | 1011.1 hPa | 0 mm | 2.24 m/s, 208° | - | - |
| 1777950721 | 10° C | 80% | 1011.1 hPa | 0 mm | 1.34 m/s, 220° | - | - |
| 1777950540 | 10° C | 81% | 1011.1 hPa | 0 mm | 2.68 m/s, 210° | - | - |
| 1777950359 | 10° C | 80% | 1011.1 hPa | 0 mm | 1.79 m/s, 220° | - | - |
* Rain latest hour (hover to see other rain measurements)
** Current wind speed in m/s (hover to see current wind gust speed)